Regional Weather Roundup
Issued by NWS Jackson, KY

Home | Current Version | Previous Version | Text Only | Print | Product List | Glossary Off
Versions: 1 2 3 4 5 6 7 8 9 10 11 12 13 14 15 16 17 18 19 20 21 22 23 24 25 26 27 28 29 30 31 32 33 34 35 36 37 38 39 40 41 42 43 44 45 46 47 48 49 50

000
ASUS43 KJKL 010010
RWRJKL

EAST KENTUCKY HOURLY WEATHER ROUNDUP
NATIONAL WEATHER SERVICE JACKSON KY
800 PM EDT FRI JUL 31 2015

NOTE: "FAIR" INDICATES FEW OR NO CLOUDS BELOW 12,000 FEET WITH
NO SIGNIFICANT WEATHER AND/OR OBSTRUCTIONS TO VISIBILITY.

* THESE REPORTS ARE NOT UNDER NWS QUALITY CONTROL AND MAY NOT
  REPORT WEATHER SUCH AS PRECIPITATION AND FOG.

KYZ079-080-083-085-087-088-110-112-115-119-120-010100
...EASTERN KENTUCKY...

CITY           SKY/WX    TMP DP  RH WIND       PRES   REMARKS
JACKSON        CLEAR     80  58  46 W3        30.02R
6HR MIN TEMP:  80; 6HR MAX TEMP:  85;

LONDON         CLEAR     83  55  38 NW5       30.03R
6HR MIN TEMP:  83; 6HR MAX TEMP:  87;

SOMERSET*      CLEAR     81  57  44 W3        30.04R
MONTICELLO*    CLEAR     81  72  74 CALM      30.05S
6HR MIN TEMP:  81; 6HR MAX TEMP:  89;

WILLIAMSBURG*  CLEAR     79  63  57 NW3       30.03S
MIDDLESBORO*   CLEAR     80  64  59 W3        30.03R
6HR MIN TEMP:  80; 6HR MAX TEMP:  85;

HAZARD APT*    CLEAR     81  59  47 CALM      30.03R
BLACK MTN*       N/A     66  57  72 N1          N/A
PIKEVILLE APT* CLEAR     79  61  53 CALM      30.02S
BIG SANDY*     CLEAR     81  62  53 CALM      30.01R
6HR MIN TEMP:  80; 6HR MAX TEMP:  85;

MOREHEAD APT*  CLEAR     82  57  42 CALM      30.01R
$$

KYZ035-036-041-042-044-050-067-078-099-010100
...CENTRAL KENTUCKY...

CITY           SKY/WX    TMP DP  RH WIND       PRES   REMARKS
MT STERLING*   CLEAR     81  64  57 NW3       30.01R
FLEMING/MASON* CLEAR     79  63  57 W5        29.99S
DANVILLE*      CLEAR     81  64  57 W3        30.03R
RICHMOND*      CLEAR     81  63  54 W5        30.01R
LEXINGTON      CLEAR     82  61  48 W5        30.01R
6HR MIN TEMP:  82; 6HR MAX TEMP:  88;

FRANKFORT      CLEAR     83  59  44 W3        29.99S
6HR MIN TEMP:  83; 6HR MAX TEMP:  87;

$$

KYZ091>093-OHZ055-061-077-WVZ005-015-034-035-042-010100
...SOUTHERN OHIO/WEST VIRGINIA...

CITY           SKY/WX    TMP DP  RH WIND       PRES   REMARKS
COVINGTON      PTCLDY    82  59  45 W5        29.97S
COLUMBUS       CLOUDY    82  58  43 SW7       29.91F
DAYTON         MOCLDY    72  67  84 NW12      29.96R
WILMINGTON     MOCLDY    80  58  46 W8        29.95F
HUNTINGTON     PTCLDY    80  62  54 SW5       29.96S
CHARLESTON     PTCLDY    82  60  47 W5        29.96R
PINEVILLE*     CLEAR     70  67  90 MISG      30.08R
BECKLEY        CLEAR     74  55  51 NW5       30.06R
BLUEFIELD      CLEAR     75  56  51 NW7       30.09R
$$

VAZ002-007-008-TNZ017-027-036-066-071-010100
...SOUTHWEST VIRGINIA/EAST TENNESSEE...

CITY           SKY/WX    TMP DP  RH WIND       PRES   REMARKS
WISE*          CLEAR     75  54  46 NW3       30.11R
ABINGDON*      CLEAR     79  53  40 CALM      30.06R
BRISTOL        PTCLDY    80  58  46 CALM      30.02R
KNOXVILLE      PTCLDY    82  58  43 NE7       30.00
OAK RIDGE      CLEAR     84  60  44 CALM      30.02R
CROSSVILLE     CLEAR     79  58  48 N7        30.08R
NASHVILLE      PTCLDY    86  61  42 N10G17    30.01S
$$

...KEY TO REMARKS...
VSB - VISIBILITY IN MILES
WCI - WIND CHILL INDEX
HX  - HEAT INDEX

$$


USA.gov is the U.S. government's official web portal to all federal, state and local government web resources and services.